Total_Precipitation_Accumulation
1.33 1.36 1.27 1.44 1.53 1.56 1.63 1.69 1.62 1.52 1.51 1.34 1.32 1.31 1.32 1.20 1.28 1.35 1.68 2.02 2.49 3.14 3.29 2.98 2.68 2.42 2.24 2.16 2.21 2.23 2.35 2.46 2.58 2.63 2.67 3.05 3.24 2.84 2.82 2.83 2.88 3.25 3.63
1.18 1.40 1.31 1.31 1.42 1.61 1.73 1.73 1.67 1.72 1.71 1.48 1.45 1.47 1.44 1.39 1.42 1.45 1.60 1.62 1.78 2.31 2.88 3.18 3.20 2.96 2.66 2.47 2.29 2.31 2.47 2.50 2.44 2.48 2.55 2.82 3.06 2.77 2.76 2.89 2.87 3.12 3.46
1.11 1.36 1.30 1.22 1.23 1.38 1.57 1.79 1.87 1.86 1.66 1.57 1.57 1.55 1.45 1.44 1.45 1.62 1.66 1.68 1.59 1.66 2.08 2.50 2.93 3.00 2.98 2.84 2.53 2.39 2.51 2.56 2.54 2.49 2.49 2.56 2.82 2.82 2.85 2.95 2.87 3.02 3.17
0.91 1.17 1.25 1.18 1.16 1.34 1.58 1.84 2.02 2.08 1.89 1.85 1.87 1.77 1.56 1.51 1.46 1.59 1.64 1.72 1.82 1.58 1.55 1.67 2.00 2.37 2.57 2.66 2.70 2.62 2.66 2.59 2.44 2.38 2.26 2.24 2.47 2.65 2.81 2.82 2.78 2.92 3.04
0.85 1.11 1.33 1.36 1.33 1.46 1.58 1.60 1.85 2.01 2.13 2.05 1.87 1.74 1.65 1.64 1.62 1.57 1.70 1.71 1.75 1.70 1.54 1.25 1.27 1.53 1.86 2.25 2.50 2.62 2.78 2.71 2.49 2.37 2.11 2.00 2.15 2.44 2.77 2.54 2.56 2.69 2.95
1.03 1.27 1.52 1.55 1.61 1.66 1.75 1.95 2.23 2.28 2.21 2.22 1.98 1.73 1.59 1.61 1.66 1.75 1.76 1.74 1.78 1.63 1.49 1.32 1.18 1.03 1.27 1.64 2.05 2.39 2.60 2.73 2.65 2.59 2.31 1.99 1.99 2.21 2.56 2.49 2.48 2.61 2.86
1.21 1.45 1.65 1.88 2.00 1.87 1.89 2.13 2.43 2.58 2.39 2.22 2.31 2.16 1.98 1.78 1.76 1.69 1.69 1.76 1.79 1.73 1.62 1.55 1.44 1.28 1.22 1.25 1.50 1.92 2.26 2.54 2.68 2.78 2.69 2.34 2.15 2.15 2.25 2.18 2.22 2.52 2.90
1.30 1.33 1.61 1.80 1.89 1.98 2.00 2.11 2.43 2.78 2.56 2.26 2.47 2.89 2.69 2.46 1.98 1.63 1.75 1.80 1.85 1.80 1.69 1.53 1.52 1.42 1.37 1.48 1.18 1.26 1.71 2.24 2.70 2.89 2.79 2.59 2.42 2.18 2.20 2.10 2.02 2.20 2.53
1.64 1.61 1.65 1.76 1.84 1.99 2.13 2.18 2.24 2.58 2.66 2.45 2.41 3.00 2.99 2.79 2.56 2.06 1.72 1.77 1.90 1.95 1.91 1.79 1.65 1.58 1.47 1.60 1.40 1.10 1.27 1.60 2.17 2.65 2.87 2.78 2.58 2.29 2.19 2.14 2.07 2.16 2.29
1.93 1.94 1.96 2.04 1.96 1.94 2.03 2.02 2.02 2.28 2.62 2.69 2.52 2.35 2.31 2.42 2.77 2.52 1.97 1.82 1.86 1.86 1.95 1.83 1.83 1.85 1.79 1.71 1.59 1.26 1.04 1.16 1.65 2.37 2.89 2.84 2.65 2.48 2.33 2.25 2.11 2.08 2.16
2.51 2.48 2.41 2.24 2.03 1.97 2.02 2.05 2.07 2.19 2.33 2.50 2.48 2.31 2.27 2.23 2.10 2.30 2.28 2.06 1.87 1.75 1.85 1.89 1.88 1.88 1.94 1.87 1.75 1.43 1.08 0.91 1.13 1.79 2.47 2.66 2.64 2.53 2.46 2.37 2.18 2.03 1.89
2.49 2.43 2.26 2.00 1.84 1.79 1.87 2.01 2.02 2.09 2.11 2.21 2.20 2.08 2.09 2.08 2.04 2.19 2.14 2.14 2.11 1.74 1.60 1.68 1.73 1.77 1.74 1.75 1.59 1.67 1.32 0.98 0.90 1.22 1.73 2.17 2.44 2.59 2.57 2.63 2.44 2.20 1.99
1.89 1.88 1.87 1.84 1.72 1.63 1.72 1.95 2.04 2.07 2.06 2.06 2.02 1.94 1.99 1.85 1.90 2.19 2.30 2.21 2.09 1.75 1.57 1.49 1.52 1.55 1.48 1.57 1.64 1.75 1.48 1.20 0.99 1.02 1.27 1.56 1.83 2.14 2.51 2.77 2.90 2.76 2.60
1.67 1.68 1.73 1.74 1.67 1.63 1.66 1.78 1.91 2.01 2.01 1.95 1.89 2.00 2.02 1.83 1.90 1.96 2.07 2.29 2.17 1.91 1.68 1.42 1.33 1.29 1.35 1.39 1.53 1.69 1.24 1.18 1.05 0.98 1.00 1.16 1.39 1.58 1.89 2.32 2.70 2.83 2.82
1.33 1.43 1.53 1.61 1.56 1.53 1.55 1.68 1.82 1.85 1.93 2.00 2.00 1.99 2.02 1.94 1.96 1.99 2.13 2.26 2.29 2.07 1.81 1.54 1.36 1.23 1.28 1.28 1.48 1.36 1.15 1.20 1.12 1.05 1.02 1.02 1.13 1.29 1.51 1.62 1.73 1.88 2.06
1.25 1.26 1.22 1.22 1.19 1.23 1.24 1.35 1.52 1.63 1.66 1.75 1.77 1.81 1.85 1.82 1.91 1.94 2.03 2.14 2.14 2.09 1.92 1.63 1.43 1.35 1.37 1.26 1.40 1.27 1.28 1.45 1.28 1.13 1.05 1.02 1.04 1.11 1.17 1.20 1.21 1.21 1.25
0.94 0.98 0.90 0.89 0.94 0.97 0.93 1.02 1.13 1.23 1.33 1.43 1.44 1.49 1.55 1.55 1.70 1.76 1.86 1.97 2.01 1.99 1.78 1.55 1.41 1.41 1.44 1.44 1.41 1.31 1.31 1.32 1.25 1.17 1.03 0.95 0.97 1.02 1.05 1.10 1.10 1.06 1.05
0.67 0.69 0.67 0.64 0.70 0.83 0.86 0.94 0.99 0.99 1.08 1.21 1.30 1.34 1.34 1.35 1.47 1.55 1.64 1.72 1.86 1.92 1.83 1.64 1.48 1.38 1.28 1.33 1.49 1.52 1.48 1.38 1.36 1.42 1.31 1.15 1.08 1.04 0.98 1.03 1.10 1.06 1.02
0.62 0.61 0.57 0.57 0.59 0.67 0.82 0.88 0.90 0.89 0.90 0.93 1.00 1.03 1.07 1.18 1.34 1.39 1.41 1.51 1.68 1.76 1.85 1.72 1.57 1.46 1.30 1.28 1.47 1.45 1.49 1.66 1.56 1.63 1.74 1.56 1.32 1.16 1.03 1.05 1.11 1.09 1.01
0.59 0.58 0.53 0.50 0.57 0.66 0.74 0.84 0.86 0.82 0.81 0.85 0.89 0.87 0.87 0.92 1.06 1.21 1.29 1.46 1.64 1.78 1.86 1.78 1.70 1.63 1.51 1.40 1.51 1.62 1.65 1.74 1.75 1.57 1.59 1.58 1.55 1.44 1.23 1.10 1.14 1.19 1.17
0.53 0.51 0.49 0.50 0.54 0.58 0.63 0.78 0.81 0.81 0.83 0.80 0.81 0.84 0.85 0.85 0.88 0.95 0.95 1.15 1.37 1.61 1.72 1.79 1.77 1.76 1.66 1.58 1.50 1.67 1.75 1.84 1.92 1.89 1.75 1.58 1.57 1.42 1.30 1.23 1.19 1.22 1.27
0.50 0.49 0.48 0.49 0.49 0.46 0.67 0.75 0.77 0.80 0.86 0.89 0.86 0.85 0.81 0.80 0.89 0.89 0.86 0.89 1.04 1.21 1.38 1.49 1.55 1.58 1.61 1.68 1.78 1.80 1.80 1.84 1.85 1.84 1.72 1.73 1.68 1.59 1.41 1.23 1.25 1.26 1.28
0.48 0.49 0.49 0.48 0.47 0.45 0.50 0.54 0.64 0.74 0.87 0.90 0.86 0.94 0.97 0.87 0.90 0.93 0.97 0.90 0.84 0.87 1.04 1.24 1.35 1.38 1.47 1.55 1.76 1.79 1.80 1.83 1.71 1.72 1.59 1.64 1.59 1.47 1.39 1.35 1.37 1.28 1.28
0.46 0.47 0.53 0.52 0.46 0.41 0.43 0.43 0.51 0.62 0.76 0.80 0.79 0.88 1.10 1.12 1.01 1.01 1.06 1.10 0.98 0.82 0.83 0.90 1.08 1.25 1.32 1.50 1.83 2.01 1.95 1.72 1.64 1.66 1.55 1.55 1.49 1.37 1.30 1.27 1.35 1.24 1.22
0.44 0.43 0.45 0.49 0.46 0.42 0.43 0.44 0.47 0.55 0.64 0.66 0.69 0.82 0.95 1.06 1.04 1.04 1.01 1.06 1.07 0.94 0.90 0.94 0.92 1.02 1.20 1.39 1.67 1.94 2.03 1.94 1.72 1.63 1.49 1.40 1.39 1.36 1.38 1.33 1.30 1.31 1.20
0.46 0.48 0.46 0.43 0.42 0.40 0.43 0.45 0.49 0.50 0.54 0.51 0.56 0.74 0.93 0.90 0.89 0.96 0.99 1.08 1.17 1.01 0.93 1.01 0.98 1.01 1.06 1.30 1.67 1.86 1.98 1.97 1.81 1.71 1.56 1.45 1.43 1.44 1.60 1.53 1.34 1.30 1.24